Zurück zum Katalog

NAVSTAR 49

USA 154

AktivNavigationHEO
NORAD 26605·PAYLOAD·🇺🇸 United States

Gestartet Nov 10, 2000 von Cape Canaveral Space Force Station

Loading…

Nächste Überflüge (nächste 24 Stunden)

TLE

AktuellSource: Space-Track

Epoche: Sep 14, 2026, 15:00 UTC

1 26605U 00071A   26257.62500000 -.00000012  00000-0  00000-0 0  9996
2 26605  55.6812  91.4225 0174436 267.0192  80.0915  2.00561777189302

Verfolge NAVSTAR 49 in Echtzeit mit AllMySat

Download on the App Store